Regional Weather Roundup
Issued by NWS

Home | Current Version | Previous Version | Text Only | Print | Product List | Glossary Off
Versions: 1 2 3 4 5 6 7 8 9 10 11 12 13 14 15 16 17 18 19 20 21 22 23 24 25 26 27 28 29 30 31 32 33 34 35 36 37 38 39 40 41 42 43 44 45 46 47 48 49 50

000
ASUS43 KIND 300409
RWRIN

WEATHER ROUNDUP FOR INDIANA
NATIONAL WEATHER SERVICE INDIANAPOLIS IN
1200 AM EDT SAT MAY 30 2015

NOTE: "FAIR" INDICATES FEW OR NO CLOUDS BELOW 12,000 FEET WITH NO
SIGNIFICANT WEATHER AND/OR OBSTRUCTIONS TO VISIBILITY.

* - STATION DOES NOT REPORT WEATHER SUCH AS PRECIPITATION OR FOG.

+ - STATION NOT QUALITY CONTROLLED BY THE NATIONAL WEATHER SERVICE.
    USE DATA WITH CAUTION...ESPECIALLY DEWPOINT AND RELATIVE
    HUMIDITY OBSERVATIONS.

INZ001>003-010>013-019-020-300500-
NORTHWEST INDIANA

CITY           SKY/WX    TMP DP  RH WIND       PRES   REMARKS
GARY /AIRPORT/ MOCLDY    73  67  80 SW5       29.95S
KNOX *+        MOCLDY    68  68 100 S6        29.97F
LA PORTE +     CLOUDY    72  67  86 S5        29.98F
MICHIGAN CITY+ CLOUDY    70  63  78 S5        29.97S
MONTICELLO +   MOCLDY    74  67  78 S12G28    29.99F
RENSSELAER +   CLOUDY    72  66  83 SW8       29.99S
VALPARAISO     CLOUDY    70  66  87 SW7       29.98S

$$

LMZ046-743>745-300500-
SOUTHERN LAKE MICHIGAN

STATION/POSITION TIME  TEMP    WIND        PRES    WAVE
                       AIR SEA DIR/SP/G            HT
                 (UTC) (F)     (DEG/KT/KT) (MB)    (FT)
BURNS HARBOR     0400   71     200/ 10/ 13 1014.6S
MICHIGAN CITY    0400   73     160/ 12/ 15   N/A
5NW MICH CITY    0400   65 56  200/  6/  8   N/A     1

$$

INZ004-005-014>016-021>024-300500-
NORTH CENTRAL INDIANA

CITY           SKY/WX    TMP DP  RH WIND       PRES   REMARKS
GOSHEN         PTCLDY    76  64  66 S13       29.98S
LOGANSPORT +   PTCLDY    72  61  68 S10       30.02S
PERU/GRISSOM   PTCLDY    74  65  74 SW12      30.00F
ROCHESTER +    PTCLDY    77  64  65 SW8       30.00F
SOUTH BEND     CLOUDY    71  67  87 S9        29.97F

$$

INZ006>009-017-018-025>027-300500-
NORTHEAST INDIANA

CITY           SKY/WX    TMP DP  RH WIND       PRES   REMARKS
ANGOLA *+      CLEAR     75  70  83 SW8       30.00S
FORT WAYNE     PTCLDY    73  64  73 S10       30.01F
HUNTINGTON +   CLEAR     73  64  73 SW5       30.01F

$$

INZ028-029-035-036-043>045-051>053-300500-
WEST CENTRAL INDIANA

CITY           SKY/WX    TMP DP  RH WIND       PRES   REMARKS
CRAWFORDSVL +  PTCLDY    71  61  70 S10       30.02F
GREENCASTLE +  CLEAR     70  63  78 S7        30.04F
LAFAYETTE      MOCLDY    74  65  73 S6        29.99F
TERRE HAUTE    PTCLDY    71  68  90 S7        30.02F

$$

INZ030>032-037>040-046>048-054>057-064-065-300500-
CENTRAL INDIANA

CITY           SKY/WX    TMP DP  RH WIND       PRES   REMARKS
CP ATTERBURY + CLEAR     68  63  83 S5        30.06F
FRANKFORT +    PTCLDY    73  65  78 S7        30.04F
GREENWOOD *+   CLEAR     72  63  73 S5        30.06S
INDIANAPOLIS   PTCLDY    73  64  73 S8        30.03S
-EAGLE CREEK   CLEAR     73  65  75 S5        30.03F
KOKOMO *+      CLEAR     73  64  73 S10       30.02F
MARION +       MOCLDY    71  62  73 S7        30.03F
MT COMFORT *+  CLEAR     72  59  64 S6        30.06S
SHELBYVILLE    CLEAR     74  65  73 S7        30.05S
ZIONSVILLE +   CLEAR     73  63  68 S7        30.05S

$$

INZ033-034-041-042-049-050-058-059-300500-
EAST CENTRAL INDIANA

CITY           SKY/WX    TMP DP  RH WIND       PRES   REMARKS
MUNCIE         CLEAR     74  64  71 S7        30.05S

$$

INZ060-061-067>069-081>083-085>088-300500-
SOUTHWEST INDIANA

CITY           SKY/WX    TMP DP  RH WIND       PRES   REMARKS
EVANSVILLE     CLEAR     74  67  78 CALM      30.04F
HUNTINGBURG *+ CLEAR     72  66  83 S5        30.06F
WASHINGTON +   MOCLDY    73  66  79 S7        30.03F

$$

INZ062-063-066-070>080-084-089>092-300500-
SOUTH CENTRAL AND SOUTHEAST INDIANA

CITY           SKY/WX    TMP DP  RH WIND       PRES   REMARKS
BLOOMINGTON    CLEAR     71  66  84 S7        30.05F
MADISON *+     MOCLDY    72  63  73 S3        30.10S
NORTH VERNON + PTCLDY    73  66  78 S5        30.08S
SEYMOUR +      PTCLDY    73  64  73 S3        30.06S

$$



USA.gov is the U.S. government's official web portal to all federal, state and local government web resources and services.